Regional Weather Roundup
Issued by NWS

Home | Current Version | Previous Version | Text Only | Print | Product List | Glossary On
Versions: 1 2 3 4 5 6 7 8 9 10 11 12 13 14 15 16 17 18 19 20 21 22 23 24 25 26 27 28 29 30 31 32 33 34 35 36 37 38 39 40 41 42 43 44 45 46 47 48 49 50
000
ASCA44 KEWX 250120
RWRMX

LATIN AMERICA AND CARIBBEAN REGIONAL WEATHER ROUNDUP
NATIONAL WEATHER SERVICE AUSTIN/SAN ANTONIO TX
800 PM CDT THU JUL 24 2014

NOTE: "FAIR" INDICATED FEW OR NO CLOUDS BELOW 12,000 FEET WITH NO
SIGNIFICANT WEATHER AND/OR OBSTRUCTIONS TO VISIBILITY.

BAJA CALIFORNIA

CITY           SKY/WX    TMP DP  RH WIND       PRES   REMARKS
LORETO         MOSUNNY   99  81  56 NE10      29.74R HX 120
LA PAZ         MOSUNNY   93  68  43 N13       29.80  HX  97
MEXICALI       PTSUNNY  109  50  14 SE12      29.62  HX 106
S.J. DEL CABO  MOSUNNY   88  72  58 SE12      29.83S HX  94
TIJUANA        MOSUNNY   81  61  50 W15       29.79S

NORTHWESTERN MEXICO

CITY           SKY/WX    TMP DP  RH WIND       PRES   REMARKS
CULIACAN       PTSUNNY   93  73  52 E6        29.82  HX 102
DURANGO        CLEAR     79  37  22 NE9       30.17R
GUAYMAS        MOSUNNY   93  75  55 S7        29.74  HX 104
HERMOSILLO     PTSUNNY   97  72  44 S10       29.82  HX 105
CD. JUAREZ     MOSUNNY   97  57  26 E12       29.99  HX  95
LOS MOCHIS     PTSUNNY   91  70  49 S10       29.82R HX  97
OBREGON        PTSUNNY   97  66  36 SE10      29.79  HX 100

NORTHEASTERN MEXICO

CITY           SKY/WX    TMP DP  RH WIND       PRES   REMARKS
CHIHUAHUA      PTSUNNY   88  46  23 E23G35    30.10S
MATAMOROS      MOCLDY    88  77  70 E14       29.95  HX 100
MONCLOVA       MOCLDY   N/A N/A N/A NE9       29.96S
MONTERREY      MOCLDY    95  55  26 E9        29.91R HX  93
NUEVO LAREDO   CLOUDY    95  70  43 SE12      29.92  HX 101
REYNOSA        PTCLDY    88  64  45 E17       29.91
SALTILLO       MOCLDY    73  63  68 S9        30.17R
TORREON        MOCLDY    88  52  29 N13       30.02F
CD. VICTORIA   PTCLDY    90  61  37 S14       29.92

WESTERN MEXICO

CITY           SKY/WX    TMP DP  RH WIND       PRES   REMARKS
AGUASCALIENTES MOCLDY    64  52  63 SE7       30.23
COLIMA         RAIN      72  66  83 SW12      30.03R
DEL BAJIO      RAIN      64  55  72 SE6       30.30R
GUADALAJARA    CLOUDY    66  59  77 S9        30.18
MANZANILLO     PTCLDY    86  79  79 SE6       29.83R HX  99
MAZATLAN       PTSUNNY   84  72  65 SW8       29.81R
P. VALLARTA    CLOUDY    77  70  78 N6        29.87S
ZACATECAS      MOCLDY    73  36  25 E12       30.26S

CENTRAL MEXICO

CITY           SKY/WX    TMP DP  RH WIND       PRES   REMARKS
MEXICO CITY    CLOUDY    63  46  55 NE16      30.31R
MORELIA        PTCLDY    66  55  68 N3        30.23
POZA RICA      MOCLDY    81  73  78 E7        30.01R
PUEBLA         MOCLDY    63  52  67 S6        30.33R
QUERETARO      CLOUDY    68  52  56 S10       30.27R
S. LUIS POTOSI MOCLDY    73  48  40 E20       30.23R
TAMPICO        MOCLDY    84  70  61 SE14      29.94R
TOLUCA         MOCLDY    59  46  63 CALM      30.36S

SOUTHERN MEXICO

CITY           SKY/WX    TMP DP  RH WIND       PRES   REMARKS
B. DE HUATULCO MOCLDY    86  75  70 CALM      29.88  HX  95
OAXACA         MOCLDY    75  48  38 NE10      30.16R
VERACRUZ       MOCLDY    81  72  74 E8        29.95R
ZIHUATANEJO    CLOUDY    86  77  74 CALM      29.85R HX  97

YUCATAN PENINSULA

CITY           SKY/WX    TMP DP  RH WIND       PRES   REMARKS
CAMPECHE       CLOUDY    82  77  83 N12       29.94R HX  91
CANCUN         MOCLDY    84  77  79 E5        29.99R HX  94
CHETUMAL       MOCLDY    84  77  79 SE12      29.96R HX  94
CD. DEL CARMEN MOCLDY    82  75  78 SE12      29.94
COZUMEL        MOCLDY    79  73  83 E3        29.99R
MERIDA         MOCLDY    81  72  74 SE7       30.00R THUNDER
MINATITLAN     CLEAR     82  68  61 N17       29.91
TAPACHULA      MOCLDY    86  79  79 CALM      29.86R HX  99
TUX. GUTIERREZ PTCLDY    82  70  65 NW13      29.92R
VILLAHERMOSA   PTCLDY    88  72  58 NE9       29.92R HX  94

CENTRAL AMERICA

CITY           SKY/WX    TMP DP  RH WIND       PRES   REMARKS
MANAGUA        PTCLDY    84  72  65 E14       29.80S

CARIBBEAN

CITY           SKY/WX    TMP DP  RH WIND       PRES   REMARKS
ARUBA          PTCLDY    82  77  83 E24       29.86  HX  91
CURACAO        PTCLDY    81  77  89 E14       29.92R
KINGSTON       PTCLDY    88  70  55 SE21      29.92R HX  92
NASSAU         PTCLDY    84  75  74 SE6       30.06R HX  92
SAN JUAN       PTCLDY    82  75  78 E8        30.07R
SANTO DOMINGO  PTCLDY    82  75  78 E9        30.00S
ST. CROIX      PTCLDY    82  72  69 NE15      30.06R
ST. KITTS      PTCLDY    82  75  78 E18       30.06
ST. MAARTEN    PTCLDY    82  73  74 E15       30.06S
ST. THOMAS     CLOUDY    82  73  74 E12       30.06R

$$



USA.gov is the U.S. government's official web portal to all federal, state and local government web resources and services.